星链-31870 (STARLINK-31870 )

导读 | 星芒AI

STARLINK-31870 是 SpaceX Starlink 卫星互联网项目中的一颗低轨卫星,属于第6批发射的星链卫星群。该卫星于2022年12月由猎鹰9号火箭送入近地轨道,旨在为全球提供高速、低延迟的宽带互联网服务。它运行在约550公里高度的轨道上,采用先进通信技术,支持Ka和Ku频段传输。Starlink 项目通过部署数千颗此类卫星,构建覆盖全球的卫星网络,特别服务于偏远和网络基础设施薄弱的地区。STARLINK-31870 在提升全球互联网接入能力方面发挥着重要作用。

基本信息
目录编号:
59787
目录名称:
STARLINK-31870
国际标识:
2024-093F
轨道中心:
EARTH
卫星名称:
星链-31870
卫星全名:
星链-31870 (STARLINK-31870 )
卫星状态:
在轨 (已飞行534 天)
发射日期:
2024-05-18 UTC
国别 :
美国 (US)
星等 :
--
轨道信息
数据来源 国际轨道数据
星历时间: 2025-11-02T08:20:57+0800
1天前
查看轨道信息
半长轴: 6861.177km
偏心率: 0.0001575
轨道倾角: 43.001°
近地点辐角 248.897°
升交点赤经 209.555°
平近点角 111.171°
近地点: 481.961km
远地点: 484.123km
周期: 94.267分钟
每日圈数: 15.275832
详细信息
固有亮度:
5
最大亮度:
1.5
卫星平台:
Starlink v2.0 mini
覆盖范围:
全球
运营商:
太空探索技术公司
运营商所在国:
美国
制造商(研发单位):
太空探索技术公司
制造商所在国:
美国
使用方式:
暂无
卫星简介
星链(Starlink)计划是由太空探索技术公司(SpaceX)提出的一个巨型低轨卫星互联网星座项目,计划在2019年至2024年间在太空搭建由约1.2万颗卫星组成的“星链”网络,其中1584颗将部署在地球上空550千米处的近地轨道,并从2020年开始工作。该卫星仍在工作。
2D轨道图
3D轨道图
轨道高度分析图
轨道倾角分析图
轨道综合分析图
查看轨道综合分析图